CZ-8 R/B, 68654

Orbit data source: Space-Track

CZ-8 R/B, 68654 is space debris in LEO originally from a launch on Tue, 07 Apr 2026 UTC launched from the Wenchang Satellite Launch Center (WSC). Debris objects in space refer to the collection of defunct objects orbiting the Earth. Examples of debris include non-operational satellites, rocket bodies, and fragments generated from explosions, collisions, or faulty payload assembly.

Loading next visibility...
Identifier
68654, 2026-075U
Orbit
LEO
Country
Flag of CNCN / PRC
Related business
Manufacturer
CALT
Mission
Spacecraft
Bus & Motor
CZ-3A STAGE 3, Unknown motor
Mass
~2,800 kg wet, ~2,800 kg dry
Launch date (UTC)
2026-04-07 (2 months ago)
Launch vehicle
Unknown
Launch site
Wenchang Satellite Launch Center (WSC)
Object type
Payload
Rocket body
Debris
Shape & HBR
Unknown shape, 4.2 m
Radar Cross Section
Large (>1 m²)

Expand to show TLE details & history
Last TLE update: 15 hours ago

TLE from 15 hours ago
0 CZ-8 R/B
1 68654U 26075U   26171.26304457  .00000241  00000-0  69776-4 0  9993
2 68654  88.9885 319.9659 0069342 232.2281 127.2627 14.40062034 10599
Epoch: 2026-06-20T06:18Z
TLE epoch observation values (Epoch: 2026-06-20T06:18:47.050Z)
Latitude
-0.00004°
Longitude
-43.21032°
Altitude
791.56 km
Speed
7.442 km/s
True Right ascension
21h 19m 51s
True Declination
0° 00' 00"
Sunlit
Object was in full shadow at epoch
Visualization orbit readout
Latitude
Unknown
Longitude
Unknown
Altitude
Unknown
Speed
Unknown
Apparent Right ascension
Unknown
Apparent Declination
Unknown
Sunlit
N/A
Visualization observer readout
Local Sidereal Time
08:33:17
Azimuth
Unknown
Elevation
Unknown
Doppler factor
Unknown
Orbital elements
Apogee altitude
804.68 km
Perigee altitude
705.752 km
Semi-major axis
7,133.353 km
Eccentricity
0.00693
Inclination
88.9885°
RAAN
319.9659°
Arg. of periapsis
232.2281°
True anomaly
127.89178°
Mean anomaly
127.2627°
Eccentric anomaly
127.57757°
Mean motion
3.60249 °/min
Orbital period
99.93 mins
BSTAR
0.000069776
Loading maneuver chart data...
Computing Atmospheric mass density...
Loading historical data...
Loading historical data...
Loading historical data...
Loading historical data...
Loading historical data...
Loading historical data...
Loading historical data...

Documentation

Showing up to 5 results
|